| time (UTC) | temp F | wind direction | speed MPH | gust MPH | rain 1hr in | rain 24hr in | rain mn in | humidity % | barometer mb |
| 20260510192106 | 64 | 297 | 1.0 | 7.0 | 0.00 | 0.00 | 0.00 | 40 | 1015.9 |
| 20260510191606 | 65 | 38 | 1.0 | 9.0 | 0.00 | 0.00 | 0.00 | 40 | 1015.8 |
| 20260510191106 | 64 | 261 | 0.0 | 10.0 | 0.00 | 0.00 | 0.00 | 40 | 1015.8 |
| 20260510190609 | 64 | 240 | 0.0 | 12.0 | 0.00 | 0.00 | 0.00 | 42 | 1015.8 |
| 20260510190106 | 63 | 309 | 1.0 | 4.0 | 0.00 | 0.00 | 0.00 | 43 | 1015.7 |
| 20260510185606 | 63 | 11 | 0.0 | 6.0 | 0.00 | 0.00 | 0.00 | 38 | 1015.7 |
| 20260510185106 | 64 | 13 | 7.0 | 10.0 | 0.00 | 0.00 | 0.00 | 41 | 1015.7 |
| 20260510184606 | 64 | 19 | 3.0 | 11.0 | 0.00 | 0.00 | 0.00 | 38 | 1015.8 |
| 20260510184106 | 64 | 315 | 6.0 | 9.0 | 0.00 | 0.00 | 0.00 | 39 | 1015.7 |
| 20260510183606 | 64 | 340 | 1.0 | 8.0 | 0.00 | 0.00 | 0.00 | 41 | 1015.6 |
| 20260510183106 | 64 | 41 | 2.0 | 3.0 | 0.00 | 0.00 | 0.00 | 41 | 1015.7 |
| 20260510182606 | 64 | 267 | 0.0 | 4.0 | 0.00 | 0.00 | 0.00 | 41 | 1015.9 |
| 20260510182106 | 63 | 328 | 3.0 | 10.0 | 0.00 | 0.00 | 0.00 | 42 | 1015.9 |
| 20260510181606 | 63 | 350 | 0.0 | 12.0 | 0.00 | 0.00 | 0.00 | 46 | 1015.8 |
| 20260510181106 | 63 | 350 | 7.0 | 11.0 | 0.00 | 0.00 | 0.00 | 43 | 1015.9 |
| 20260510180606 | 63 | 334 | 8.0 | 10.0 | 0.00 | 0.00 | 0.00 | 41 | 1015.8 |
| 20260510180106 | 63 | 303 | 5.0 | 6.0 | 0.00 | 0.00 | 0.00 | 39 | 1015.6 |
| 20260510175606 | 64 | 293 | 2.0 | 7.0 | 0.00 | 0.00 | 0.00 | 44 | 1015.4 |
| 20260510175106 | 63 | 286 | 5.0 | 7.0 | 0.00 | 0.00 | 0.00 | 42 | 1015.3 |
| 20260510174609 | 63 | 337 | 5.0 | 13.0 | 0.00 | 0.00 | 0.00 | 44 | 1015.3 |
| 20260510174106 | 62 | 323 | 1.0 | 12.0 | 0.00 | 0.00 | 0.00 | 45 | 1015.5 |
| 20260510173606 | 62 | 323 | 3.0 | 10.0 | 0.00 | 0.00 | 0.00 | 42 | 1015.6 |
| 20260510173109 | 62 | 15 | 7.0 | 10.0 | 0.00 | 0.00 | 0.00 | 42 | 1015.5 |
| 20260510172609 | 63 | 57 | 0.0 | 8.0 | 0.00 | 0.00 | 0.00 | 46 | 1015.5 |
| 20260510172106 | 62 | 317 | 4.0 | 7.0 | 0.00 | 0.00 | 0.00 | 44 | 1015.5 |
| 20260510171606 | 62 | 313 | 4.0 | 6.0 | 0.00 | 0.00 | 0.00 | 45 | 1015.5 |
| 20260510171106 | 61 | 86 | 5.0 | 17.0 | 0.00 | 0.00 | 0.00 | 41 | 1015.6 |
| 20260510170606 | 62 | 342 | 12.0 | 17.0 | 0.00 | 0.00 | 0.00 | 41 | 1015.5 |
| 20260510170106 | 61 | 304 | 1.0 | 9.0 | 0.00 | 0.00 | 0.00 | 42 | 1015.6 |
| 20260510165606 | 62 | 350 | 6.0 | 7.0 | 0.00 | 0.00 | 0.00 | 43 | 1015.5 |
| 20260510165106 | 61 | 342 | 0.0 | 6.0 | 0.00 | 0.00 | 0.00 | 40 | 1015.7 |
| 20260510164606 | 61 | 18 | 4.0 | 12.0 | 0.00 | 0.00 | 0.00 | 42 | 1015.7 |
| 20260510164109 | 61 | 291 | 3.0 | 10.0 | 0.00 | 0.00 | 0.00 | 40 | 1015.7 |
| 20260510163606 | 61 | 22 | 7.0 | 15.0 | 0.00 | 0.00 | 0.00 | 37 | 1015.6 |
| 20260510163106 | 61 | 5 | 3.0 | 15.0 | 0.00 | 0.00 | 0.00 | 41 | 1015.7 |
| 20260510162606 | 61 | 270 | 1.0 | 9.0 | 0.00 | 0.00 | 0.00 | 43 | 1015.6 |
| 20260510162111 | 61 | 9 | 7.0 | 13.0 | 0.00 | 0.00 | 0.00 | 39 | 1015.7 |
| 20260510161606 | 61 | 337 | 3.0 | 7.0 | 0.00 | 0.00 | 0.00 | 38 | 1015.7 |
| 20260510161106 | 62 | 331 | 5.0 | 11.0 | 0.00 | 0.00 | 0.00 | 39 | 1015.6 |
| 20260510160609 | 62 | 5 | 1.0 | 8.0 | 0.00 | 0.00 | 0.00 | 45 | 1015.6 |
| 20260510160106 | 62 | 304 | 0.0 | 9.0 | 0.00 | 0.00 | 0.00 | 36 | 1015.4 |
| 20260510155606 | 61 | 308 | 0.0 | 7.0 | 0.00 | 0.00 | 0.00 | 47 | 1015.4 |
| 20260510155106 | 61 | 344 | 3.0 | 9.0 | 0.00 | 0.00 | 0.00 | 47 | 1015.4 |
| 20260510154609 | 60 | 92 | 0.0 | 5.0 | 0.00 | 0.00 | 0.00 | 53 | 1015.4 |
| 20260510154106 | 60 | 70 | 0.0 | 5.0 | 0.00 | 0.00 | 0.00 | 49 | 1015.3 |
| 20260510153606 | 59 | 100 | 1.0 | 10.0 | 0.00 | 0.00 | 0.00 | 52 | 1015.2 |
| 20260510153106 | 59 | 9 | 2.0 | 7.0 | 0.00 | 0.00 | 0.00 | 50 | 1015.1 |
| 20260510152609 | 60 | 355 | 4.0 | 5.0 | 0.00 | 0.00 | 0.00 | 53 | 1015.1 |
| 20260510152106 | 59 | 342 | 1.0 | 6.0 | 0.00 | 0.00 | 0.00 | 52 | 1015.0 |
| 20260510151606 | 58 | 94 | 3.0 | 6.0 | 0.00 | 0.00 | 0.00 | 53 | 1015.0 |
| 20260510151106 | 58 | 29 | 5.0 | 9.0 | 0.00 | 0.00 | 0.00 | 51 | 1015.0 |
| 20260510150606 | 58 | 341 | 0.0 | 6.0 | 0.00 | 0.00 | 0.00 | 52 | 1014.9 |
| 20260510150106 | 57 | 306 | 2.0 | 8.0 | 0.00 | 0.00 | 0.00 | 54 | 1014.9 |
| 20260510145606 | 57 | 334 | 6.0 | 10.0 | 0.00 | 0.00 | 0.00 | 54 | 1014.9 |
| 20260510145109 | 57 | 81 | 2.0 | 8.0 | 0.00 | 0.00 | 0.00 | 54 | 1014.9 |
| 20260510144606 | 57 | 32 | 7.0 | 7.0 | 0.00 | 0.00 | 0.00 | 54 | 1014.7 |
| 20260510144106 | 57 | 64 | 3.0 | 4.0 | 0.00 | 0.00 | 0.00 | 55 | 1014.6 |
| 20260510143606 | 57 | 65 | 2.0 | 7.0 | 0.00 | 0.00 | 0.00 | 53 | 1014.5 |
| 20260510143106 | 57 | 76 | 3.0 | 9.0 | 0.00 | 0.00 | 0.00 | 53 | 1014.4 |
| 20260510142606 | 56 | 318 | 5.0 | 9.0 | 0.00 | 0.00 | 0.00 | 55 | 1014.3 |
| 20260510142106 | 56 | 23 | 4.0 | 6.0 | 0.00 | 0.00 | 0.00 | 55 | 1014.4 |
| 20260510141606 | 56 | 348 | 4.0 | 11.0 | 0.00 | 0.00 | 0.00 | 54 | 1014.3 |
| 20260510141106 | 56 | 355 | 5.0 | 10.0 | 0.00 | 0.00 | 0.00 | 53 | 1014.4 |
| 20260510140609 | 56 | 321 | 0.0 | 6.0 | 0.00 | 0.00 | 0.00 | 56 | 1014.3 |
| 20260510140109 | 55 | 38 | 0.0 | 9.0 | 0.00 | 0.00 | 0.00 | 56 | 1014.4 |
| 20260510135606 | 55 | 118 | 3.0 | 7.0 | 0.00 | 0.00 | 0.00 | 58 | 1014.4 |
| 20260510135109 | 54 | 82 | 5.0 | 7.0 | 0.00 | 0.00 | 0.00 | 58 | 1014.3 |
| 20260510134606 | 54 | 22 | 3.0 | 4.0 | 0.00 | 0.00 | 0.00 | 57 | 1014.3 |
| 20260510134106 | 54 | 355 | 0.0 | 9.0 | 0.00 | 0.00 | 0.00 | 57 | 1014.2 |
| 20260510133606 | 54 | 90 | 0.0 | 7.0 | 0.00 | 0.00 | 0.00 | 57 | 1014.2 |
| 20260510133109 | 54 | 0 | 2.0 | 10.0 | 0.00 | 0.00 | 0.00 | 58 | 1014.2 |
| 20260510132609 | 54 | 26 | 1.0 | 6.0 | 0.00 | 0.00 | 0.00 | 59 | 1014.1 |
| 20260510132109 | 53 | 342 | 0.0 | 7.0 | 0.00 | 0.00 | 0.00 | 60 | 1014.1 |
| 20260510131606 | 53 | 342 | 6.0 | 9.0 | 0.00 | 0.00 | 0.00 | 60 | 1014.1 |
| 20260510131106 | 53 | 75 | 0.0 | 6.0 | 0.00 | 0.00 | 0.00 | 60 | 1014.2 |
| 20260510130606 | 53 | 38 | 0.0 | 5.0 | 0.00 | 0.00 | 0.00 | 61 | 1014.1 |
| 20260510130106 | 53 | 46 | 2.0 | 8.0 | 0.00 | 0.00 | 0.00 | 61 | 1013.9 |
| 20260510125606 | 53 | 22 | 0.0 | 2.0 | 0.00 | 0.00 | 0.00 | 64 | 1013.7 |
| 20260510125109 | 53 | 22 | 0.0 | 5.0 | 0.00 | 0.00 | 0.00 | 63 | 1013.7 |
| 20260510124606 | 52 | 29 | 0.0 | 5.0 | 0.00 | 0.01 | 0.00 | 64 | 1013.5 |
| 20260510124106 | 52 | 344 | 1.0 | 7.0 | 0.00 | 0.01 | 0.00 | 64 | 1013.5 |
| 20260510123606 | 52 | 355 | 4.0 | 5.0 | 0.00 | 0.01 | 0.00 | 63 | 1013.6 |
| 20260510123106 | 52 | 5 | 3.0 | 5.0 | 0.00 | 0.01 | 0.00 | 64 | 1013.6 |
| 20260510122606 | 52 | 355 | 0.0 | 5.0 | 0.00 | 0.01 | 0.00 | 64 | 1013.6 |
| 20260510122106 | 52 | 355 | 0.0 | 6.0 | 0.00 | 0.01 | 0.00 | 65 | 1013.5 |
| 20260510121606 | 52 | 346 | 5.0 | 7.0 | 0.00 | 0.01 | 0.00 | 65 | 1013.5 |
| 20260510121109 | 52 | 19 | 2.0 | 5.0 | 0.00 | 0.01 | 0.00 | 68 | 1013.5 |
| 20260510120606 | 52 | 22 | 1.0 | 4.0 | 0.00 | 0.01 | 0.00 | 68 | 1013.4 |
| 20260510120114 | 53 | 26 | 2.0 | 4.0 | 0.00 | 0.01 | 0.00 | 68 | 1013.2 |
| 20260510115606 | 53 | 26 | 0.0 | 1.0 | 0.00 | 0.01 | 0.00 | 69 | 1013.0 |
| 20260510115106 | 53 | 26 | 0.0 | 1.0 | 0.00 | 0.01 | 0.00 | 69 | 1013.0 |
| 20260510114606 | 53 | 26 | 0.0 | 0.0 | 0.00 | 0.01 | 0.00 | 68 | 1013.0 |
| 20260510114106 | 53 | 26 | 0.0 | 1.0 | 0.00 | 0.01 | 0.00 | 67 | 1013.0 |
| 20260510113606 | 53 | 26 | 0.0 | 3.0 | 0.00 | 0.01 | 0.00 | 66 | 1012.9 |
| 20260510113106 | 53 | 26 | 0.0 | 3.0 | 0.00 | 0.01 | 0.00 | 64 | 1012.6 |
| 20260510112606 | 53 | 26 | 2.0 | 4.0 | 0.00 | 0.01 | 0.00 | 64 | 1012.6 |
| 20260510112106 | 53 | 35 | 0.0 | 6.0 | 0.00 | 0.01 | 0.00 | 63 | 1012.6 |
| 20260510111606 | 53 | 24 | 2.0 | 7.0 | 0.00 | 0.01 | 0.00 | 64 | 1012.5 |
| 20260510111107 | 53 | 5 | 2.0 | 7.0 | 0.00 | 0.01 | 0.00 | 64 | 1012.4 |
| 20260510110606 | 53 | 337 | 3.0 | 9.0 | 0.00 | 0.02 | 0.00 | 65 | 1012.3 |
| 20260510110106 | 53 | 9 | 9.0 | 9.0 | 0.00 | 0.02 | 0.00 | 66 | 1012.3 |
| 20260510105606 | 53 | 20 | 1.0 | 7.0 | 0.00 | 0.02 | 0.00 | 67 | 1012.1 |
| 20260510105106 | 54 | 335 | 1.0 | 9.0 | 0.00 | 0.02 | 0.00 | 67 | 1011.8 |
| 20260510104606 | 54 | 355 | 4.0 | 9.0 | 0.00 | 0.03 | 0.00 | 69 | 1011.7 |
| 20260510104106 | 54 | 11 | 6.0 | 10.0 | 0.00 | 0.03 | 0.00 | 69 | 1011.7 |
| 20260510103606 | 54 | 14 | 4.0 | 9.0 | 0.00 | 0.03 | 0.00 | 70 | 1011.6 |
| 20260510103106 | 54 | 11 | 3.0 | 9.0 | 0.00 | 0.04 | 0.00 | 70 | 1011.5 |
| 20260510102606 | 54 | 5 | 4.0 | 7.0 | 0.00 | 0.04 | 0.00 | 70 | 1011.3 |
| 20260510102106 | 55 | 355 | 4.0 | 7.0 | 0.00 | 0.04 | 0.00 | 70 | 1011.1 |
| 20260510101606 | 55 | 344 | 0.0 | 10.0 | 0.00 | 0.04 | 0.00 | 71 | 1011.0 |
| 20260510101106 | 55 | 5 | 9.0 | 10.0 | 0.00 | 0.04 | 0.00 | 73 | 1011.1 |
| 20260510100606 | 55 | 348 | 3.0 | 6.0 | 0.00 | 0.04 | 0.00 | 74 | 1010.9 |
| 20260510100106 | 55 | 350 | 0.0 | 6.0 | 0.00 | 0.05 | 0.00 | 74 | 1010.9 |
| 20260510095606 | 55 | 349 | 0.0 | 6.0 | 0.00 | 0.05 | 0.00 | 74 | 1011.0 |
| 20260510095106 | 55 | 344 | 2.0 | 5.0 | 0.00 | 0.05 | 0.00 | 74 | 1011.0 |
| 20260510094609 | 55 | 335 | 0.0 | 5.0 | 0.00 | 0.05 | 0.00 | 73 | 1010.8 |
| 20260510094111 | 55 | 322 | 2.0 | 4.0 | 0.00 | 0.05 | 0.00 | 73 | 1010.6 |
| 20260510093606 | 55 | 320 | 0.0 | 4.0 | 0.00 | 0.05 | 0.00 | 73 | 1010.7 |
| 20260510093106 | 55 | 321 | 0.0 | 2.0 | 0.00 | 0.05 | 0.00 | 73 | 1010.5 |
| 20260510092606 | 56 | 321 | 0.0 | 5.0 | 0.00 | 0.06 | 0.00 | 73 | 1010.4 |
| 20260510092106 | 56 | 328 | 0.0 | 5.0 | 0.00 | 0.06 | 0.00 | 72 | 1010.1 |
| 20260510091606 | 56 | 325 | 2.0 | 7.0 | 0.00 | 0.07 | 0.00 | 72 | 1010.0 |
| 20260510091106 | 56 | 281 | 0.0 | 7.0 | 0.00 | 0.07 | 0.00 | 72 | 1010.1 |
| 20260510090607 | 57 | 332 | 3.0 | 7.0 | 0.00 | 0.07 | 0.00 | 72 | 1010.0 |
| 20260510090106 | 57 | 0 | 0.0 | 5.0 | 0.00 | 0.08 | 0.00 | 72 | 1009.8 |
| 20260510085609 | 57 | 297 | 0.0 | 5.0 | 0.00 | 0.08 | 0.00 | 73 | 1009.9 |
| 20260510085106 | 58 | 299 | 0.0 | 5.0 | 0.00 | 0.09 | 0.00 | 73 | 1009.7 |
| 20260510084606 | 58 | 308 | 1.0 | 4.0 | 0.00 | 0.09 | 0.00 | 73 | 1009.4 |
| 20260510084106 | 58 | 308 | 0.0 | 2.0 | 0.00 | 0.10 | 0.00 | 72 | 1009.2 |
| 20260510083606 | 58 | 308 | 3.0 | 6.0 | 0.00 | 0.10 | 0.00 | 71 | 1009.4 |
| 20260510083106 | 58 | 311 | 2.0 | 7.0 | 0.00 | 0.10 | 0.00 | 70 | 1009.2 |
| 20260510082606 | 58 | 300 | 2.0 | 8.0 | 0.00 | 0.11 | 0.00 | 70 | 1009.1 |
| 20260510082106 | 58 | 276 | 0.0 | 5.0 | 0.00 | 0.11 | 0.00 | 70 | 1009.1 |
| 20260510081606 | 58 | 306 | 1.0 | 5.0 | 0.00 | 0.11 | 0.00 | 69 | 1009.0 |
| 20260510081106 | 58 | 263 | 0.0 | 3.0 | 0.00 | 0.12 | 0.00 | 69 | 1009.1 |
| 20260510080606 | 58 | 263 | 2.0 | 4.0 | 0.00 | 0.13 | 0.00 | 69 | 1009.1 |
| 20260510080106 | 58 | 262 | 0.0 | 2.0 | 0.00 | 0.14 | 0.00 | 68 | 1009.0 |
| 20260510075611 | 58 | 262 | 2.0 | 5.0 | 0.00 | 0.14 | 0.00 | 68 | 1009.1 |
| 20260510075106 | 58 | 262 | 2.0 | 9.0 | 0.00 | 0.16 | 0.00 | 69 | 1009.2 |
| 20260510074606 | 58 | 248 | 1.0 | 2.0 | 0.00 | 0.17 | 0.00 | 69 | 1009.3 |
| 20260510074106 | 59 | 248 | 0.0 | 4.0 | 0.00 | 0.18 | 0.00 | 69 | 1009.4 |
| 20260510073606 | 59 | 248 | 2.0 | 6.0 | 0.00 | 0.19 | 0.00 | 68 | 1009.3 |
| 20260510073106 | 59 | 247 | 1.0 | 5.0 | 0.00 | 0.20 | 0.00 | 68 | 1009.1 |
| 20260510072606 | 59 | 247 | 5.0 | 5.0 | 0.00 | 0.21 | 0.00 | 68 | 1009.0 |
| 20260510072106 | 59 | 248 | 0.0 | 3.0 | 0.00 | 0.21 | 0.00 | 68 | 1008.9 |
| 20260510071606 | 59 | 248 | 0.0 | 6.0 | 0.00 | 0.21 | 0.00 | 68 | 1009.1 |
| 20260510071106 | 60 | 262 | 0.0 | 5.0 | 0.00 | 0.21 | 0.00 | 67 | 1009.2 |
| 20260510070606 | 60 | 262 | 4.0 | 6.0 | 0.00 | 0.22 | 0.00 | 67 | 1009.2 |
| 20260510070106 | 60 | 263 | 1.0 | 7.0 | 0.00 | 0.22 | 0.00 | 66 | 1009.2 |
| 20260510065609 | 60 | 234 | 1.0 | 3.0 | 0.00 | 0.23 | 0.00 | 66 | 1009.2 |
| 20260510065106 | 61 | 234 | 0.0 | 3.0 | 0.00 | 0.23 | 0.00 | 65 | 1009.1 |
| 20260510064611 | 61 | 234 | 0.0 | 7.0 | 0.00 | 0.23 | 0.00 | 64 | 1009.0 |
| 20260510064106 | 61 | 240 | 2.0 | 7.0 | 0.00 | 0.23 | 0.00 | 64 | 1009.1 |
| 20260510063606 | 61 | 239 | 4.0 | 8.0 | 0.00 | 0.24 | 0.00 | 64 | 1009.2 |
| 20260510063106 | 61 | 252 | 2.0 | 9.0 | 0.00 | 0.24 | 0.00 | 65 | 1009.2 |
| 20260510062606 | 61 | 230 | 5.0 | 10.0 | 0.00 | 0.24 | 0.00 | 66 | 1009.3 |
| 20260510062109 | 60 | 263 | 9.0 | 13.0 | 0.00 | 0.25 | 0.00 | 68 | 1009.5 |
| 20260510061606 | 60 | 232 | 13.0 | 14.0 | 0.00 | 0.25 | 0.00 | 71 | 1009.6 |
| 20260510061106 | 60 | 243 | 4.0 | 10.0 | 0.00 | 0.25 | 0.00 | 72 | 1009.6 |
| 20260510060609 | 60 | 244 | 5.0 | 11.0 | 0.00 | 0.25 | 0.00 | 72 | 1009.7 |
| 20260510060106 | 60 | 242 | 6.0 | 11.0 | 0.00 | 0.25 | 0.00 | 72 | 1009.7 |
| 20260510055606 | 60 | 223 | 9.0 | 11.0 | 0.00 | 0.25 | 0.00 | 73 | 1009.6 |
| 20260510055106 | 60 | 237 | 0.0 | 5.0 | 0.00 | 0.25 | 0.00 | 72 | 1009.5 |
| 20260510054606 | 60 | 237 | 4.0 | 8.0 | 0.00 | 0.25 | 0.00 | 72 | 1009.5 |
| 20260510054106 | 60 | 239 | 0.0 | 9.0 | 0.00 | 0.25 | 0.00 | 71 | 1009.4 |
| 20260510053606 | 60 | 240 | 0.0 | 5.0 | 0.00 | 0.25 | 0.00 | 71 | 1009.4 |
| 20260510053106 | 60 | 240 | 2.0 | 4.0 | 0.00 | 0.25 | 0.00 | 70 | 1009.4 |
| 20260510052606 | 60 | 240 | 1.0 | 8.0 | 0.00 | 0.25 | 0.00 | 70 | 1009.4 |
| 20260510052106 | 61 | 241 | 3.0 | 6.0 | 0.00 | 0.25 | 0.00 | 70 | 1009.4 |
| 20260510051606 | 61 | 240 | 2.0 | 5.0 | 0.00 | 0.25 | 0.00 | 69 | 1009.2 |
| 20260510051109 | 61 | 240 | 3.0 | 10.0 | 0.00 | 0.25 | 0.00 | 69 | 1009.4 |
| 20260510050606 | 61 | 247 | 6.0 | 7.0 | 0.00 | 0.25 | 0.00 | 69 | 1009.4 |
| 20260510050106 | 61 | 250 | 2.0 | 7.0 | 0.00 | 0.25 | 0.00 | 69 | 1009.5 |
| 20260510045609 | 61 | 258 | 1.0 | 7.0 | 0.00 | 0.25 | 0.00 | 69 | 1009.3 |
| 20260510045106 | 61 | 242 | 0.0 | 5.0 | 0.00 | 0.25 | 0.00 | 68 | 1009.2 |
| 20260510044609 | 61 | 242 | 0.0 | 7.0 | 0.00 | 0.25 | 0.00 | 68 | 1009.1 |
| 20260510044106 | 61 | 227 | 1.0 | 6.0 | 0.00 | 0.25 | 0.00 | 67 | 1009.1 |
| 20260510043606 | 61 | 229 | 4.0 | 12.0 | 0.00 | 0.25 | 0.00 | 67 | 1009.0 |
| 20260510043106 | 61 | 232 | 10.0 | 11.0 | 0.00 | 0.25 | 0.00 | 67 | 1009.0 |
| 20260510042606 | 61 | 186 | 0.0 | 7.0 | 0.00 | 0.25 | 0.00 | 67 | 1009.0 |
| 20260510042109 | 61 | 241 | 6.0 | 9.0 | 0.00 | 0.25 | 0.00 | 66 | 1009.0 |
| 20260510041606 | 61 | 227 | 5.0 | 6.0 | 0.00 | 0.25 | 0.00 | 66 | 1008.9 |
| 20260510041106 | 61 | 219 | 0.0 | 13.0 | 0.00 | 0.25 | 0.00 | 66 | 1008.9 |
| 20260510040606 | 61 | 201 | 0.0 | 6.0 | 0.00 | 0.26 | 0.00 | 65 | 1008.9 |
| 20260510040106 | 61 | 240 | 3.0 | 5.0 | 0.00 | 0.26 | 0.00 | 64 | 1009.0 |
| 20260510035606 | 61 | 234 | 0.0 | 5.0 | 0.00 | 0.26 | 0.00 | 64 | 1008.9 |
| 20260510035109 | 61 | 233 | 0.0 | 3.0 | 0.00 | 0.26 | 0.00 | 64 | 1008.9 |
| 20260510034606 | 61 | 233 | 3.0 | 7.0 | 0.00 | 0.26 | 0.00 | 63 | 1008.9 |
| 20260510034106 | 61 | 233 | 2.0 | 7.0 | 0.00 | 0.26 | 0.00 | 63 | 1008.8 |
| 20260510033606 | 61 | 200 | 3.0 | 4.0 | 0.00 | 0.26 | 0.00 | 64 | 1008.7 |
| 20260510033106 | 62 | 199 | 0.0 | 2.0 | 0.00 | 0.26 | 0.00 | 63 | 1008.7 |
| 20260510032606 | 62 | 199 | 0.0 | 4.0 | 0.00 | 0.26 | 0.00 | 63 | 1008.7 |
| 20260510032106 | 62 | 198 | 0.0 | 3.0 | 0.00 | 0.26 | 0.00 | 63 | 1008.6 |
| 20260510031606 | 62 | 198 | 0.0 | 1.0 | 0.00 | 0.26 | 0.00 | 63 | 1008.6 |
| 20260510031106 | 62 | 198 | 0.0 | 1.0 | 0.00 | 0.26 | 0.00 | 63 | 1008.5 |
| 20260510030606 | 62 | 198 | 2.0 | 4.0 | 0.00 | 0.26 | 0.00 | 62 | 1008.5 |
| 20260510030106 | 62 | 198 | 0.0 | 3.0 | 0.00 | 0.26 | 0.00 | 62 | 1008.7 |
| 20260510025606 | 62 | 198 | 2.0 | 5.0 | 0.00 | 0.26 | 0.00 | 63 | 1008.7 |
| 20260510025109 | 62 | 202 | 0.0 | 5.0 | 0.00 | 0.26 | 0.00 | 63 | 1008.6 |
| 20260510024606 | 62 | 182 | 0.0 | 2.0 | 0.00 | 0.26 | 0.00 | 63 | 1008.7 |
| 20260510024106 | 62 | 182 | 0.0 | 0.0 | 0.00 | 0.26 | 0.00 | 63 | 1008.7 |
| 20260510023606 | 62 | 182 | 0.0 | 0.0 | 0.00 | 0.26 | 0.00 | 63 | 1008.6 |
| 20260510023106 | 62 | 182 | 0.0 | 1.0 | 0.00 | 0.26 | 0.00 | 63 | 1008.5 |
| 20260510022606 | 62 | 182 | 0.0 | 1.0 | 0.00 | 0.26 | 0.00 | 63 | 1008.5 |
| 20260510022109 | 62 | 182 | 0.0 | 0.0 | 0.00 | 0.26 | 0.00 | 62 | 1008.5 |
| 20260510021606 | 62 | 182 | 0.0 | 0.0 | 0.00 | 0.26 | 0.00 | 62 | 1008.4 |
| 20260510021107 | 62 | 182 | 0.0 | 0.0 | 0.00 | 0.26 | 0.00 | 61 | 1008.4 |
| 20260510020606 | 62 | 182 | 0.0 | 0.0 | 0.00 | 0.26 | 0.00 | 61 | 1008.3 |
| 20260510020106 | 62 | 182 | 0.0 | 0.0 | 0.00 | 0.26 | 0.00 | 60 | 1008.2 |
| 20260510015606 | 63 | 182 | 0.0 | 1.0 | 0.00 | 0.26 | 0.00 | 60 | 1008.0 |
| 20260510015106 | 63 | 182 | 0.0 | 1.0 | 0.00 | 0.26 | 0.00 | 60 | 1007.9 |
| 20260510014606 | 63 | 182 | 0.0 | 2.0 | 0.00 | 0.26 | 0.00 | 59 | 1007.8 |
| 20260510014106 | 63 | 182 | 0.0 | 6.0 | 0.00 | 0.26 | 0.00 | 59 | 1007.8 |
| 20260510013609 | 64 | 224 | 0.0 | 1.0 | 0.00 | 0.26 | 0.00 | 58 | 1007.8 |
| 20260510013106 | 64 | 224 | 0.0 | 2.0 | 0.00 | 0.26 | 0.00 | 58 | 1007.7 |
| 20260510012606 | 64 | 224 | 0.0 | 1.0 | 0.00 | 0.26 | 0.00 | 57 | 1007.6 |
| 20260510012109 | 64 | 224 | 0.0 | 3.0 | 0.00 | 0.26 | 0.00 | 57 | 1007.4 |
| 20260510011609 | 64 | 227 | 0.0 | 1.0 | 0.00 | 0.26 | 0.00 | 56 | 1007.3 |
| 20260510011106 | 65 | 227 | 0.0 | 3.0 | 0.00 | 0.26 | 0.00 | 56 | 1007.4 |
| 20260510010606 | 65 | 227 | 0.0 | 3.0 | 0.00 | 0.27 | 0.00 | 55 | 1007.3 |
| 20260510010106 | 65 | 227 | 0.0 | 1.0 | 0.00 | 0.27 | 0.00 | 55 | 1007.4 |
| 20260510005606 | 66 | 228 | 0.0 | 3.0 | 0.00 | 0.27 | 0.00 | 54 | 1007.4 |
| 20260510005109 | 66 | 228 | 0.0 | 5.0 | 0.00 | 0.27 | 0.00 | 54 | 1007.3 |
| 20260510004609 | 66 | 208 | 2.0 | 6.0 | 0.00 | 0.27 | 0.00 | 53 | 1007.2 |
| 20260510004106 | 66 | 218 | 0.0 | 4.0 | 0.00 | 0.27 | 0.00 | 53 | 1007.2 |
| 20260510003606 | 66 | 219 | 0.0 | 6.0 | 0.00 | 0.27 | 0.00 | 52 | 1007.0 |
| 20260510003106 | 67 | 203 | 0.0 | 9.0 | 0.00 | 0.27 | 0.00 | 51 | 1007.0 |
| 20260510002606 | 67 | 236 | 2.0 | 10.0 | 0.00 | 0.27 | 0.00 | 51 | 1006.9 |
| 20260510002106 | 67 | 213 | 0.0 | 7.0 | 0.00 | 0.27 | 0.00 | 51 | 1006.8 |
| 20260510001606 | 67 | 228 | 0.0 | 6.0 | 0.00 | 0.27 | 0.00 | 50 | 1006.8 |
| 20260510001106 | 68 | 242 | 0.0 | 9.0 | 0.00 | 0.27 | 0.00 | 50 | 1006.6 |
| 20260510000606 | 68 | 215 | 9.0 | 9.0 | 0.00 | 0.27 | 0.00 | 49 | 1006.6 |
| 20260510000107 | 68 | 234 | 0.0 | 11.0 | 0.00 | 0.27 | 0.00 | 48 | 1006.5 |
| 20260509235606 | 68 | 235 | 0.0 | 12.0 | 0.00 | 0.27 | 0.00 | 48 | 1006.5 |
| 20260509235106 | 68 | 227 | 7.0 | 12.0 | 0.00 | 0.27 | 0.00 | 47 | 1006.5 |
| 20260509234606 | 68 | 234 | 6.0 | 12.0 | 0.00 | 0.27 | 0.00 | 47 | 1006.4 |
| 20260509234106 | 69 | 270 | 8.0 | 17.0 | 0.00 | 0.27 | 0.00 | 47 | 1006.3 |
| 20260509233609 | 69 | 224 | 3.0 | 9.0 | 0.00 | 0.27 | 0.00 | 48 | 1006.4 |
| 20260509233106 | 69 | 248 | 1.0 | 13.0 | 0.00 | 0.27 | 0.00 | 48 | 1006.3 |
| 20260509232611 | 69 | 229 | 4.0 | 7.0 | 0.00 | 0.27 | 0.00 | 50 | 1006.3 |
| 20260509232111 | 69 | 225 | 1.0 | 12.0 | 0.00 | 0.27 | 0.00 | 48 | 1006.1 |
| 20260509231606 | 70 | 231 | 7.0 | 14.0 | 0.00 | 0.27 | 0.00 | 47 | 1006.1 |
| 20260509231106 | 70 | 244 | 3.0 | 13.0 | 0.00 | 0.27 | 0.00 | 48 | 1006.0 |
| 20260509230607 | 70 | 197 | 3.0 | 12.0 | 0.00 | 0.27 | 0.00 | 48 | 1006.0 |
| 20260509230106 | 70 | 204 | 3.0 | 12.0 | 0.00 | 0.27 | 0.00 | 48 | 1006.0 |
| 20260509225606 | 70 | 161 | 2.0 | 15.0 | 0.00 | 0.27 | 0.00 | 47 | 1006.0 |
| 20260509225106 | 70 | 169 | 7.0 | 13.0 | 0.00 | 0.27 | 0.00 | 47 | 1005.9 |
| 20260509224606 | 70 | 185 | 8.0 | 17.0 | 0.00 | 0.27 | 0.00 | 47 | 1005.9 |
| 20260509223606 | 70 | 236 | 5.0 | 13.0 | 0.00 | 0.27 | 0.00 | 48 | 1005.8 |
| 20260509223106 | 70 | 237 | 11.0 | 14.0 | 0.00 | 0.27 | 0.00 | 44 | 1005.8 |
| 20260509222606 | 70 | 176 | 10.0 | 16.0 | 0.00 | 0.27 | 0.00 | 47 | 1005.8 |
| 20260509222109 | 70 | 163 | 5.0 | 12.0 | 0.00 | 0.27 | 0.00 | 48 | 1005.7 |
| 20260509221606 | 70 | 232 | 0.0 | 13.0 | 0.00 | 0.27 | 0.00 | 48 | 1005.8 |
| 20260509221106 | 70 | 165 | 0.0 | 16.0 | 0.00 | 0.27 | 0.00 | 48 | 1005.8 |
| 20260509220611 | 70 | 223 | 7.0 | 16.0 | 0.00 | 0.27 | 0.00 | 49 | 1005.8 |
| 20260509220106 | 70 | 227 | 2.0 | 15.0 | 0.00 | 0.27 | 0.00 | 48 | 1005.9 |
| 20260509215607 | 70 | 302 | 6.0 | 13.0 | 0.00 | 0.27 | 0.00 | 48 | 1005.9 |
| 20260509215106 | 70 | 240 | 3.0 | 13.0 | 0.00 | 0.27 | 0.00 | 48 | 1006.0 |
| 20260509214611 | 70 | 240 | 7.0 | 13.0 | 0.00 | 0.27 | 0.00 | 48 | 1006.0 |
| 20260509214106 | 70 | 169 | 4.0 | 15.0 | 0.00 | 0.27 | 0.00 | 49 | 1006.1 |
| 20260509213606 | 70 | 167 | 12.0 | 15.0 | 0.00 | 0.27 | 0.00 | 51 | 1006.1 |
| 20260509213106 | 70 | 205 | 3.0 | 14.0 | 0.00 | 0.27 | 0.00 | 49 | 1006.0 |
| 20260509212614 | 70 | 177 | 5.0 | 16.0 | 0.00 | 0.27 | 0.00 | 49 | 1006.1 |
| 20260509212109 | 70 | 257 | 7.0 | 12.0 | 0.00 | 0.27 | 0.00 | 48 | 1006.1 |
| 20260509211606 | 70 | 220 | 5.0 | 15.0 | 0.00 | 0.27 | 0.00 | 47 | 1006.0 |
| 20260509211106 | 70 | 176 | 11.0 | 16.0 | 0.00 | 0.27 | 0.00 | 48 | 1006.0 |
| 20260509210606 | 69 | 138 | 3.0 | 15.0 | 0.00 | 0.27 | 0.00 | 48 | 1006.1 |
| 20260509210109 | 69 | 154 | 11.0 | 19.0 | 0.00 | 0.27 | 0.00 | 49 | 1006.1 |
| 20260509205606 | 69 | 186 | 12.0 | 18.0 | 0.00 | 0.27 | 0.00 | 50 | 1006.2 |
| 20260509205106 | 69 | 150 | 5.0 | 15.0 | 0.00 | 0.27 | 0.00 | 49 | 1006.2 |
| 20260509204606 | 69 | 214 | 2.0 | 13.0 | 0.00 | 0.27 | 0.00 | 52 | 1006.2 |
| 20260509204106 | 70 | 264 | 9.0 | 19.0 | 0.00 | 0.27 | 0.00 | 50 | 1006.1 |
| 20260509203606 | 70 | 222 | 6.0 | 14.0 | 0.00 | 0.27 | 0.00 | 50 | 1006.2 |
| 20260509203106 | 69 | 176 | 6.0 | 12.0 | 0.00 | 0.27 | 0.00 | 50 | 1006.2 |
| 20260509202607 | 69 | 153 | 12.0 | 16.0 | 0.00 | 0.27 | 0.00 | 50 | 1006.2 |
| 20260509202106 | 69 | 217 | 6.0 | 14.0 | 0.00 | 0.27 | 0.00 | 51 | 1006.2 |
| 20260509201609 | 69 | 213 | 7.0 | 14.0 | 0.00 | 0.27 | 0.00 | 51 | 1006.2 |
| 20260509201106 | 69 | 235 | 4.0 | 15.0 | 0.00 | 0.27 | 0.00 | 51 | 1006.5 |
| 20260509200611 | 69 | 175 | 7.0 | 11.0 | 0.00 | 0.27 | 0.00 | 51 | 1006.5 |
| 20260509200109 | 69 | 224 | 6.0 | 13.0 | 0.00 | 0.27 | 0.00 | 51 | 1006.5 |
| 20260509195609 | 69 | 225 | 5.0 | 20.0 | 0.00 | 0.27 | 0.00 | 51 | 1006.5 |
| 20260509195106 | 69 | 240 | 12.0 | 12.0 | 0.00 | 0.27 | 0.00 | 54 | 1006.6 |
| 20260509194606 | 68 | 207 | 10.0 | 10.0 | 0.00 | 0.27 | 0.00 | 54 | 1006.6 |
| 20260509194106 | 68 | 221 | 4.0 | 18.0 | 0.00 | 0.27 | 0.00 | 53 | 1006.6 |
| 20260509193606 | 68 | 182 | 1.0 | 15.0 | 0.00 | 0.27 | 0.00 | 53 | 1006.6 |
| 20260509193106 | 68 | 203 | 4.0 | 16.0 | 0.00 | 0.27 | 0.00 | 56 | 1006.7 |
| 20260509192606 | 68 | 198 | 6.0 | 14.0 | 0.00 | 0.27 | 0.00 | 56 | 1006.8 |